| time (UTC) | temp C | wind direction | speed KPH | gust KPH | rain 1hr cm | rain 24hr cm | rain mn cm | humidity % | barometer mb |
| 20260505111540 | 12 | 217 | 0.0 | 0.0 | 0.00 | 0.00 | 0.00 | 84 | 1013.8 |
| 20260505110539 | 12 | 217 | 0.0 | 0.0 | 0.00 | 0.00 | 0.00 | 84 | 1013.7 |
| 20260505095532 | 12 | 216 | 0.0 | 0.0 | 0.00 | 0.00 | 0.00 | 83 | 1013.3 |
| 20260505094532 | 12 | 209 | 0.0 | 0.0 | 0.00 | 0.00 | 0.00 | 83 | 1013.2 |
| 20260505092528 | 13 | 249 | 0.0 | 0.0 | 0.00 | 0.00 | 0.00 | 81 | 1013.1 |
| 20260505091527 | 13 | 250 | 0.0 | 0.0 | 0.00 | 0.00 | 0.00 | 81 | 1013.0 |
| 20260505090526 | 13 | 250 | 0.0 | 0.0 | 0.00 | 0.00 | 0.00 | 80 | 1012.9 |
| 20260505085526 | 13 | 261 | 0.0 | 0.0 | 0.00 | 0.00 | 0.00 | 80 | 1012.8 |
| 20260505081522 | 14 | 270 | 0.0 | 0.0 | 0.00 | 0.00 | 0.00 | 78 | 1012.6 |
| 20260505080521 | 15 | 270 | 0.0 | 0.0 | 0.00 | 0.00 | 0.00 | 78 | 1012.6 |
| 20260505075519 | 15 | 270 | 0.0 | 0.0 | 0.00 | 0.00 | 0.00 | 78 | 1012.5 |
| 20260505074518 | 15 | 270 | 0.0 | 0.0 | 0.00 | 0.00 | 0.00 | 78 | 1012.4 |
| 20260505073517 | 15 | 270 | 0.0 | 0.0 | 0.00 | 0.00 | 0.00 | 76 | 1012.2 |
| 20260505071515 | 15 | 270 | 0.0 | 0.0 | 0.00 | 0.00 | 0.00 | 76 | 1012.0 |
| 20260505070515 | 15 | 272 | 0.0 | 0.0 | 0.00 | 0.00 | 0.00 | 76 | 1011.9 |
| 20260505065514 | 15 | 263 | 0.0 | 0.0 | 0.00 | 0.00 | 0.00 | 76 | 1011.8 |
| 20260505064512 | 16 | 321 | 0.0 | 0.0 | 0.00 | 0.00 | 0.00 | 76 | 1011.7 |
| 20260505063511 | 16 | 321 | 0.0 | 0.0 | 0.00 | 0.00 | 0.00 | 75 | 1011.5 |
| 20260505062510 | 16 | 327 | 0.0 | 0.0 | 0.00 | 0.00 | 0.00 | 74 | 1011.4 |
| 20260505061509 | 16 | 329 | 0.0 | 0.0 | 0.00 | 0.00 | 0.00 | 74 | 1011.2 |
| 20260505060509 | 17 | 329 | 0.0 | 0.0 | 0.00 | 0.00 | 0.00 | 73 | 1011.1 |
| 20260505055507 | 17 | 329 | 0.0 | 0.0 | 0.00 | 0.00 | 0.00 | 73 | 1011.2 |
| 20260505053505 | 17 | 329 | 0.0 | 0.0 | 0.00 | 0.00 | 0.00 | 71 | 1011.0 |
| 20260505052504 | 18 | 331 | 0.0 | 0.0 | 0.00 | 0.00 | 0.00 | 70 | 1010.9 |
| 20260505050502 | 18 | 331 | 0.0 | 0.0 | 0.00 | 0.00 | 0.00 | 69 | 1010.7 |
| 20260505041457 | 20 | 281 | 6.4 | 0.0 | 0.00 | 0.00 | 0.00 | 68 | 1010.0 |
| 20260505035455 | 20 | 210 | 0.0 | 0.0 | 0.00 | 0.00 | 0.00 | 70 | 1009.7 |
| 20260505033453 | 20 | 209 | 0.0 | 0.0 | 0.00 | 0.00 | 0.00 | 70 | 1009.3 |
| 20260505032452 | 20 | 205 | 0.0 | 0.0 | 0.00 | 0.00 | 0.00 | 69 | 1009.1 |
| 20260505031451 | 21 | 204 | 1.6 | 0.0 | 0.00 | 0.00 | 0.00 | 68 | 1009.0 |
| 20260505030450 | 21 | 225 | 0.0 | 0.0 | 0.00 | 0.00 | 0.00 | 68 | 1008.9 |
| 20260505023447 | 21 | 249 | 0.0 | 0.0 | 0.00 | 0.00 | 0.00 | 66 | 1008.7 |
| 20260505022446 | 21 | 249 | 4.8 | 0.0 | 0.00 | 0.00 | 0.00 | 66 | 1008.8 |
| 20260505021446 | 22 | 197 | 1.6 | 0.0 | 0.00 | 0.00 | 0.00 | 66 | 1008.7 |
| 20260505020444 | 22 | 195 | 0.0 | 0.0 | 0.00 | 0.00 | 0.00 | 65 | 1008.7 |
| 20260505015443 | 22 | 254 | 0.0 | 0.0 | 0.00 | 0.00 | 0.00 | 63 | 1008.7 |
| 20260505014442 | 22 | 247 | 0.0 | 0.0 | 0.00 | 0.00 | 0.00 | 63 | 1008.7 |
| 20260505013441 | 22 | 210 | 0.0 | 0.0 | 0.00 | 0.00 | 0.00 | 63 | 1008.8 |
| 20260505012440 | 22 | 203 | 0.0 | 0.0 | 0.00 | 0.00 | 0.00 | 62 | 1008.9 |
| 20260505011439 | 23 | 218 | 0.0 | 0.0 | 0.00 | 0.00 | 0.00 | 61 | 1009.0 |
| 20260505010438 | 23 | 219 | 0.0 | 0.0 | 0.00 | 0.00 | 0.00 | 61 | 1008.9 |
| 20260505005437 | 23 | 230 | 0.0 | 0.0 | 0.00 | 0.00 | 0.00 | 59 | 1009.0 |
| 20260505004436 | 23 | 229 | 4.8 | 0.0 | 0.00 | 0.00 | 0.00 | 60 | 1009.1 |
| 20260505003435 | 24 | 225 | 6.4 | 0.0 | 0.00 | 0.00 | 0.00 | 57 | 1009.1 |
| 20260505002434 | 25 | 247 | 6.4 | 0.0 | 0.00 | 0.00 | 0.00 | 54 | 1009.1 |
| 20260505001432 | 25 | 246 | 6.4 | 0.0 | 0.00 | 0.00 | 0.00 | 56 | 1009.1 |
| 20260505000432 | 25 | 261 | 11.3 | 0.0 | 0.00 | 0.00 | 0.00 | 54 | 1009.3 |
| 20260504235431 | 25 | 219 | 0.0 | 0.0 | 0.00 | 0.00 | 0.00 | 53 | 1009.3 |
| 20260504234429 | 26 | 209 | 4.8 | 0.0 | 0.00 | 0.00 | 0.00 | 52 | 1009.3 |
| 20260504233429 | 26 | 241 | 0.0 | 0.0 | 0.00 | 0.00 | 0.00 | 53 | 1009.3 |
| 20260504231427 | 25 | 227 | 0.0 | 0.0 | 0.00 | 0.00 | 0.00 | 55 | 1009.5 |
| 20260504230425 | 25 | 259 | 0.0 | 0.0 | 0.00 | 0.00 | 0.00 | 52 | 1009.6 |
| 20260504225425 | 24 | 269 | 3.2 | 0.0 | 0.00 | 0.00 | 0.00 | 55 | 1009.8 |
| 20260504224423 | 24 | 240 | 1.6 | 0.0 | 0.00 | 0.00 | 0.00 | 54 | 1009.8 |
| 20260504223422 | 24 | 165 | 0.0 | 0.0 | 0.00 | 0.00 | 0.00 | 55 | 1010.0 |
| 20260504222421 | 24 | 161 | 0.0 | 0.0 | 0.00 | 0.00 | 0.00 | 55 | 1010.1 |
| 20260504221421 | 24 | 223 | 0.0 | 0.0 | 0.00 | 0.00 | 0.00 | 53 | 1010.2 |
| 20260504220420 | 24 | 231 | 0.0 | 0.0 | 0.00 | 0.00 | 0.00 | 55 | 1010.4 |
| 20260504215419 | 24 | 238 | 0.0 | 0.0 | 0.00 | 0.00 | 0.00 | 55 | 1010.5 |
| 20260504214418 | 23 | 252 | 0.0 | 0.0 | 0.00 | 0.00 | 0.00 | 55 | 1010.6 |
| 20260504204412 | 22 | 205 | 0.0 | 0.0 | 0.00 | 0.00 | 0.00 | 61 | 1011.6 |
| 20260504203411 | 22 | 248 | 0.0 | 0.0 | 0.00 | 0.00 | 0.00 | 60 | 1011.6 |
| 20260504202409 | 21 | 198 | 0.0 | 0.0 | 0.00 | 0.00 | 0.00 | 62 | 1011.7 |
| 20260504201408 | 21 | 239 | 0.0 | 0.0 | 0.00 | 0.00 | 0.00 | 62 | 1011.8 |
| 20260504200407 | 21 | 209 | 0.0 | 0.0 | 0.00 | 0.00 | 0.00 | 64 | 1012.0 |
| 20260504193404 | 18 | 179 | 0.0 | 0.0 | 0.00 | 0.00 | 0.00 | 68 | 1012.2 |
| 20260504192403 | 18 | 244 | 0.0 | 0.0 | 0.00 | 0.00 | 0.00 | 69 | 1012.2 |
| 20260504191403 | 17 | 201 | 0.0 | 0.0 | 0.00 | 0.00 | 0.00 | 71 | 1012.2 |
| 20260504190401 | 17 | 248 | 3.2 | 0.0 | 0.00 | 0.00 | 0.00 | 73 | 1012.3 |
| 20260504185401 | 17 | 266 | 4.8 | 0.0 | 0.00 | 0.00 | 0.00 | 73 | 1012.4 |
| 20260504184359 | 16 | 254 | 0.0 | 0.0 | 0.00 | 0.00 | 0.00 | 74 | 1012.5 |
| 20260504183359 | 16 | 181 | 0.0 | 0.0 | 0.00 | 0.00 | 0.00 | 75 | 1012.4 |
| 20260504182358 | 16 | 192 | 11.3 | 0.0 | 0.00 | 0.00 | 0.00 | 76 | 1012.4 |
| 20260504181356 | 16 | 214 | 0.0 | 0.0 | 0.00 | 0.00 | 0.00 | 78 | 1012.4 |
| 20260504180355 | 15 | 206 | 0.0 | 0.0 | 0.00 | 0.00 | 0.00 | 79 | 1012.5 |
| 20260504172351 | 14 | 215 | 0.0 | 0.0 | 0.00 | 0.00 | 0.00 | 80 | 1012.4 |
| 20260504171350 | 14 | 254 | 1.6 | 0.0 | 0.00 | 0.00 | 0.00 | 81 | 1012.4 |
| 20260504160343 | 13 | 229 | 0.0 | 0.0 | 0.00 | 0.00 | 0.00 | 83 | 1012.3 |
| 20260504150337 | 12 | 184 | 9.7 | 0.0 | 0.00 | 0.00 | 0.00 | 85 | 1011.9 |
| 20260504141331 | 12 | 266 | 1.6 | 0.0 | 0.00 | 0.00 | 0.00 | 85 | 1011.2 |